TimeCDT,TemperatureF,Dew PointF,Humidity,Sea Level PressureIn,VisibilityMPH,Wind Direction,Wind SpeedMPH,Gust SpeedMPH,PrecipitationIn,Events,Conditions,WindDirDegrees,DateUTC
12:54 AM,79.0,66.0,64,30.07,10.0,South,10.4,-,N/A,,Clear,190,2013-08-25 05:54:00
1:54 AM,77.0,66.0,69,30.08,10.0,South,6.9,-,N/A,,Clear,190,2013-08-25 06:54:00
2:54 AM,77.0,66.0,69,30.09,10.0,South,8.1,-,N/A,,Clear,180,2013-08-25 07:54:00
3:54 AM,75.0,64.9,71,30.10,10.0,South,6.9,-,N/A,,Clear,190,2013-08-25 08:54:00
4:54 AM,75.0,64.0,69,30.12,10.0,South,9.2,-,N/A,,Clear,190,2013-08-25 09:54:00
5:54 AM,73.9,64.0,71,30.12,10.0,South,9.2,-,N/A,,Partly Cloudy,190,2013-08-25 10:54:00
6:54 AM,75.0,64.9,71,30.14,10.0,SSW,12.7,-,N/A,,Partly Cloudy,210,2013-08-25 11:54:00
7:54 AM,75.9,64.9,69,30.15,10.0,SSW,10.4,-,N/A,,Clear,210,2013-08-25 12:54:00
8:54 AM,79.0,66.9,66,30.15,10.0,SSW,12.7,-,N/A,,Clear,200,2013-08-25 13:54:00
9:54 AM,82.9,68.0,60,30.14,10.0,SSW,13.8,-,N/A,,Clear,210,2013-08-25 14:54:00
10:54 AM,86.0,69.1,57,30.13,10.0,SSW,16.1,-,N/A,,Clear,210,2013-08-25 15:54:00
11:54 AM,90.0,69.1,50,30.11,10.0,SSW,16.1,21.9,N/A,,Clear,210,2013-08-25 16:54:00
12:54 PM,91.9,68.0,45,30.09,10.0,SSW,19.6,25.3,N/A,,Clear,210,2013-08-25 17:54:00
1:54 PM,93.9,69.1,44,30.08,10.0,South,15.0,-,N/A,,Clear,190,2013-08-25 18:54:00
2:54 PM,95.0,68.0,41,30.07,10.0,SSW,16.1,23.0,N/A,,Scattered Clouds,200,2013-08-25 19:54:00
3:54 PM,96.1,64.9,36,30.06,10.0,SW,18.4,23.0,N/A,,Scattered Clouds,220,2013-08-25 20:54:00
4:54 PM,96.1,66.0,37,30.05,10.0,South,15.0,-,N/A,,Scattered Clouds,190,2013-08-25 21:54:00
5:54 PM,95.0,64.9,37,30.05,10.0,South,11.5,-,N/A,,Partly Cloudy,190,2013-08-25 22:54:00
6:54 PM,91.9,66.9,44,30.04,10.0,South,10.4,-,N/A,,Partly Cloudy,190,2013-08-25 23:54:00
7:54 PM,87.1,66.9,51,30.05,10.0,South,8.1,-,N/A,,Partly Cloudy,190,2013-08-26 00:54:00
8:54 PM,84.0,66.9,56,30.06,10.0,SSW,6.9,-,N/A,,Partly Cloudy,200,2013-08-26 01:54:00
9:54 PM,82.9,68.0,60,30.08,10.0,SSW,10.4,-,N/A,,Clear,200,2013-08-26 02:54:00
10:54 PM,81.0,68.0,65,30.08,10.0,South,10.4,-,N/A,,Clear,190,2013-08-26 03:54:00
11:54 PM,80.1,68.0,67,30.08,10.0,SSW,9.2,-,N/A,,Clear,200,2013-08-26 04:54:00